Tracking 28902 objects as of 19-May-2024
HD Live streaming from Space Station
objects crossing your sky now

COSMOS 2499

Track COSMOS 2499 now!
10-day predictions
COSMOS 2499 is classified as:


NORAD ID: 39765
Int'l Code: 2014-028E
Perigee: 1,158.6 km
Apogee: 1,515.5 km
Inclination: 82.5 °
Period: 112.2 minutes
Semi major axis: 7708 km
RCS: Unknown
Launch date: May 23, 2014
Source: Commonwealth of Independent States (former USSR) (CIS)
Launch site: PLESETSK MISSILE AND SPACE COMPLEX (PKMTR)

Uplink (MHz):
Downlink (MHz): 435.465
Beacon (MHz): 435.465/435.565
Mode: CW
Call sign:
Status:

Your satellite tracking list
Your tracking list is empty




NASA's NSSDC Master Catalog

Two Line Element Set (TLE):
1 39765U 14028E   24139.82535201  .00000024  00000-0  53615-4 0  9990
2 39765  82.4525  44.8213 0231502 344.7428  14.6771 12.82873801467873
Source of the keplerian elements: Caltech